Weather History for Glenwood, MN

Change the Weather History Date:

Sunday, January 26, 2014

  Actual Average Record
Temperature  
Mean Temperature -1 °F -  
Max Temperature 12 °F 19 °F 50 °F (1973)
Min Temperature -14 °F -2 °F -26 °F (1950)
Degree Days  
Heating Degree Days 66    
Moisture  
Dew Point -2 °F    
Average Humidity 81    
Maximum Humidity 92    
Minimum Humidity 70    
Precipitation  
Precipitation 0.04 in - - ()
Sea Level Pressure  
Sea Level Pressure 29.62 in    
Wind  
Wind Speed 17 mph (NW)    
Max Wind Speed 41 mph    
Max Gust Speed 52 mph    
Visibility 3 miles    
Events Snow    
Averages and records for this station are not official NWS values.
T = Trace of Precipitation, MM = Missing Value Source: NWS Daily Summary

Daily Weather History Graph

Daily Weather History Graph

Search for Another Location

Airport:

Trip Planner

Search our weather history database for the weather conditions in past years. The results will help you decide how hot, cold, wet, or windy it might be!

Date:

Astronomy

Jan. 26, 2014 Rise Set
Actual Time 7:49 AM CST 5:19 PM CST
Civil Twilight 7:17 AM CST 5:51 PM CST
Nautical Twilight 6:41 AM CST 6:27 PM CST
Astronomical Twilight 6:05 AM CST 7:02 PM CST
Moon 3:28 AM CST (1/26) 1:07 PM CST (1/26)
Length of Visible Light 10h 34m
Length of Day
9h 29m
Waning Crescent, 23% of the Moon is Illuminated
Jan 26
Waning Crescent
Jan 30
New
Feb 6
First Quarter
Feb 14
Full
Feb 22
Last Quarter

Hourly Weather History & Observations

Time (CST) Temp. Windchill Dew Point Humidity Pressure Visibility Wind Dir Wind Speed Gust Speed Precip Events Conditions
12:13 AM 6.8 °F -9.3 °F 3.2 °F 85% 29.39 in 1.2 mi ESE 12.7 mph - N/A Snow Light Snow
12:34 AM 6.8 °F -9.3 °F 3.2 °F 85% 29.38 in 2.0 mi ESE 12.7 mph - N/A Snow Light Snow
12:53 AM 6.8 °F -6.9 °F 3.2 °F 85% 29.38 in 2.0 mi ESE 9.2 mph - N/A Snow Light Snow
1:13 AM 6.8 °F -6.9 °F 3.2 °F 85% 29.38 in 2.0 mi East 9.2 mph - N/A Snow Light Snow
1:34 AM 6.8 °F -6.9 °F 3.2 °F 85% 29.35 in 2.0 mi East 9.2 mph - N/A Snow Light Snow
1:53 AM 6.8 °F -4.8 °F 3.2 °F 85% 29.38 in 2.5 mi East 6.9 mph - N/A Snow Light Snow
2:14 AM 6.8 °F -3.5 °F 3.2 °F 85% 29.37 in 10.0 mi East 5.8 mph - N/A Snow Light Snow
2:33 AM 6.8 °F -5.9 °F 3.2 °F 85% 29.37 in 10.0 mi East 8.1 mph - 0.01 in Snow Light Snow
2:53 AM 6.8 °F - 3.2 °F 85% 29.38 in 10.0 mi Calm Calm - 0.02 in Snow Light Snow
3:13 AM 6.8 °F - 3.2 °F 85% 29.39 in 7.0 mi Calm Calm - 0.01 in Snow Light Snow
3:33 AM 6.8 °F - 3.2 °F 85% 29.39 in 10.0 mi Calm Calm - 0.01 in Snow Light Snow
3:54 AM 6.8 °F - 3.2 °F 85% 29.39 in 10.0 mi Calm Calm - 0.01 in Snow Light Snow
4:13 AM 6.8 °F - 3.2 °F 85% 29.38 in 10.0 mi Calm Calm - 0.01 in Snow Light Snow
4:33 AM 6.8 °F - 3.2 °F 85% 29.39 in 7.0 mi Calm Calm - 0.01 in Snow Light Snow
4:54 AM 6.8 °F - 3.2 °F 85% 29.39 in 10.0 mi Calm Calm - 0.01 in Snow Light Snow
5:13 AM 6.8 °F - 3.2 °F 85% 29.38 in 10.0 mi Calm Calm - N/A Snow Light Snow
5:34 AM 6.8 °F -6.9 °F 5.0 °F 92% 29.41 in 10.0 mi West 9.2 mph - N/A Snow Light Snow
5:53 AM 8.6 °F -7.7 °F 6.8 °F 92% 29.40 in 5.0 mi West 13.8 mph - N/A Snow Light Snow
6:13 AM 10.4 °F -9.1 °F 8.6 °F 92% 29.39 in 2.5 mi WNW 21.9 mph 27.6 mph N/A Snow Light Snow
6:34 AM 10.4 °F -9.1 °F 8.6 °F 92% 29.40 in 3.0 mi WNW 21.9 mph 26.5 mph N/A Snow Light Snow
6:53 AM 10.4 °F -7.7 °F 8.6 °F 92% 29.39 in 7.0 mi WNW 18.4 mph - N/A Snow Light Snow
7:13 AM 12.2 °F -5.8 °F 8.6 °F 85% 29.39 in 5.0 mi WNW 19.6 mph 29.9 mph N/A   Overcast
7:33 AM 12.2 °F -6.3 °F 8.6 °F 85% 29.39 in 10.0 mi WNW 20.7 mph 25.3 mph N/A   Mostly Cloudy
7:53 AM 12.2 °F -7.5 °F 8.6 °F 85% 29.39 in 3.0 mi WNW 24.2 mph 28.8 mph N/A   Mostly Cloudy
8:13 AM 12.2 °F -7.5 °F 8.6 °F 85% 29.39 in 2.0 mi WNW 24.2 mph 33.4 mph N/A   Overcast
8:33 AM 12.2 °F -7.9 °F 8.6 °F 85% 29.39 in 2.0 mi WNW 25.3 mph 29.9 mph N/A   Mostly Cloudy
8:53 AM 12.2 °F -7.5 °F 8.6 °F 85% 29.40 in 2.0 mi WNW 24.2 mph 29.9 mph N/A   Mostly Cloudy
9:14 AM 12.2 °F -6.3 °F 8.6 °F 85% 29.41 in 2.5 mi WNW 20.7 mph 24.2 mph N/A Snow Light Snow
9:33 AM 12.2 °F -6.3 °F 8.6 °F 85% 29.41 in 1.8 mi WNW 20.7 mph 25.3 mph N/A Snow Light Snow
9:53 AM 12.2 °F -8.2 °F 8.6 °F 85% 29.43 in 1.5 mi WNW 26.5 mph 31.1 mph N/A   Overcast
10:13 AM 12.2 °F -6.7 °F 8.6 °F 85% 29.44 in 1.0 mi NW 21.9 mph 33.4 mph N/A   Overcast
10:33 AM 12.2 °F -6.3 °F 8.6 °F 85% 29.46 in 1.0 mi WNW 20.7 mph 27.6 mph N/A Snow Light Snow
10:54 AM 12.2 °F -7.9 °F 6.8 °F 79% 29.45 in 1.5 mi WNW 25.3 mph 34.5 mph N/A   Haze
11:13 AM 10.4 °F -9.1 °F 5.0 °F 79% 29.47 in 1.8 mi WNW 21.9 mph 32.2 mph N/A   Haze
11:33 AM 10.4 °F -10.7 °F 3.2 °F 73% 29.48 in 1.2 mi WNW 26.5 mph 31.1 mph N/A   Haze
11:53 AM 10.4 °F -9.5 °F 3.2 °F 73% 29.49 in 1.8 mi NW 23.0 mph 28.8 mph N/A   Haze
12:13 PM 8.6 °F -13.4 °F 1.4 °F 73% 29.50 in 0.2 mi NW 27.6 mph 41.4 mph N/A Snow Light Snow
12:33 PM 8.6 °F -14.1 °F 1.4 °F 73% 29.51 in 0.5 mi WNW 29.9 mph 41.4 mph N/A Snow Light Snow
12:53 PM 6.8 °F -16.2 °F 1.4 °F 79% 29.52 in 0.5 mi NW 28.8 mph 41.4 mph N/A Snow Light Snow
1:13 PM 5.0 °F -20.7 °F -0.4 °F 78% 29.54 in 0.2 mi NW 35.7 mph 44.9 mph N/A Snow Light Snow
1:34 PM 3.2 °F -20.3 °F -2.2 °F 78% 29.55 in 0.2 mi NW 26.5 mph 36.8 mph N/A Snow Light Snow
1:53 PM 3.2 °F -22.2 °F -2.2 °F 78% 29.57 in 0.2 mi NW 32.2 mph 39.1 mph N/A Snow Light Snow
2:13 PM 1.4 °F -24.6 °F -4.0 °F 78% 29.59 in 0.2 mi NW 32.2 mph 44.9 mph N/A Snow Light Snow
2:34 PM 1.4 °F -25.7 °F -5.8 °F 72% 29.61 in 0.2 mi NW 35.7 mph 42.6 mph N/A Snow Snow
2:53 PM 1.4 °F -23.9 °F -5.8 °F 72% 29.64 in 0.2 mi NW 29.9 mph 40.3 mph N/A Snow Light Snow
3:13 PM -0.4 °F -29.7 °F -5.8 °F 78% 29.65 in 0.2 mi WNW 41.4 mph 51.8 mph N/A Snow Light Snow
3:33 PM -2.2 °F -29.6 °F -7.6 °F 78% 29.69 in 0.2 mi NW 32.2 mph 49.5 mph N/A Snow Snow
3:53 PM -2.2 °F -30.3 °F -7.6 °F 78% 29.71 in 0.2 mi NW 34.5 mph 48.3 mph N/A Snow Heavy Snow
4:14 PM -2.2 °F -30.9 °F -7.6 °F 78% 29.73 in 0.2 mi WNW 36.8 mph 46.0 mph N/A Snow Light Snow
4:33 PM -2.2 °F -30.9 °F -7.6 °F 78% 29.76 in 0.2 mi WNW 36.8 mph 47.2 mph N/A Snow Snow
4:53 PM -2.2 °F -27.6 °F -7.6 °F 78% 29.79 in 0.2 mi WNW 26.5 mph 41.4 mph N/A Snow Light Snow
5:14 PM -2.2 °F -27.1 °F -7.6 °F 78% 29.81 in 0.2 mi NW 25.3 mph 40.3 mph N/A Snow Light Snow
5:33 PM -4.0 °F -31.6 °F -9.4 °F 78% 29.84 in 0.5 mi NW 31.1 mph 43.7 mph N/A Snow Snow
5:53 PM -5.8 °F -34.1 °F -9.4 °F 84% 29.86 in 0.5 mi NW 31.1 mph 41.4 mph N/A Snow Snow
6:13 PM -5.8 °F -33.3 °F -11.2 °F 77% 29.89 in 0.8 mi NW 28.8 mph 41.4 mph N/A Snow Light Snow
6:33 PM -5.8 °F -34.9 °F -11.2 °F 77% 29.90 in 0.8 mi NW 33.4 mph 39.1 mph N/A Snow Snow
6:54 PM -5.8 °F -34.1 °F -11.2 °F 77% 29.92 in 0.8 mi NW 31.1 mph 41.4 mph N/A Snow Light Snow
7:13 PM -7.6 °F -36.1 °F -11.2 °F 84% 29.94 in 0.8 mi NW 29.9 mph 46.0 mph N/A Snow Light Snow
7:34 PM -7.6 °F -35.7 °F -11.2 °F 84% 29.96 in 0.8 mi NW 28.8 mph 42.6 mph N/A Snow Light Snow
7:53 PM -7.6 °F -35.3 °F -14.8 °F 71% 29.99 in 0.8 mi NW 27.6 mph 40.3 mph N/A Snow Light Snow
8:13 PM -9.4 °F -37.7 °F -14.8 °F 77% 30.00 in 1.5 mi NW 27.6 mph 33.4 mph N/A Snow Light Snow
8:34 PM -9.4 °F -37.7 °F -14.8 °F 77% 30.01 in 1.5 mi NW 27.6 mph 35.7 mph N/A Snow Light Snow
8:53 PM -9.4 °F -37.7 °F -16.6 °F 71% 30.02 in 1.2 mi NW 27.6 mph 36.8 mph N/A Snow Light Snow
9:13 PM -9.4 °F -37.7 °F -16.6 °F 71% 30.04 in 1.5 mi NW 27.6 mph 36.8 mph N/A Snow Light Snow
9:34 PM -11.2 °F -39.2 °F -16.6 °F 77% 30.05 in 2.0 mi NW 25.3 mph 33.4 mph N/A Snow Light Snow
9:53 PM -11.2 °F -37.0 °F -18.4 °F 70% 30.06 in 4.0 mi NW 20.7 mph 29.9 mph N/A   Haze
10:14 PM -11.2 °F -36.4 °F -18.4 °F 70% 30.07 in 4.0 mi NW 19.6 mph 27.6 mph N/A   Haze
10:33 PM -11.2 °F -37.6 °F -18.4 °F 70% 30.08 in 3.0 mi NW 21.9 mph 28.8 mph N/A   Haze
10:53 PM -13.0 °F -41.1 °F -18.4 °F 77% 30.09 in 3.0 mi NW 24.2 mph 29.9 mph N/A   Haze
11:13 PM -13.0 °F -40.0 °F -20.2 °F 70% 30.11 in 2.5 mi NW 21.9 mph 33.4 mph N/A   Haze
11:33 PM -14.8 °F -43.5 °F -20.2 °F 77% 30.13 in 4.0 mi WNW 24.2 mph 32.2 mph N/A   Haze
11:53 PM -14.8 °F -42.9 °F -20.2 °F 77% 30.14 in 4.0 mi WNW 23.0 mph 29.9 mph N/A   Haze